| time (UTC) | temp F | wind direction | speed MPH | gust MPH | rain 1hr in | rain 24hr in | rain mn in | humidity % | barometer mb |
| 20260502213005 | 77 | 273 | 5.0 | 11.0 | 0.00 | 0.00 | 0.00 | 36 | 983.3 |
| 20260502212500 | 78 | 286 | 4.0 | 12.0 | 0.00 | 0.00 | 0.00 | 36 | 983.4 |
| 20260502211954 | 77 | 291 | 3.0 | 12.0 | 0.00 | 0.00 | 0.00 | 37 | 983.5 |
| 20260502211448 | 77 | 304 | 5.0 | 10.0 | 0.00 | 0.00 | 0.00 | 35 | 983.5 |
| 20260502210942 | 77 | 277 | 6.0 | 11.0 | 0.00 | 0.00 | 0.00 | 36 | 983.6 |
| 20260502205930 | 77 | 246 | 5.0 | 11.0 | 0.00 | 0.00 | 0.00 | 38 | 983.7 |
| 20260502205425 | 78 | 0 | 4.0 | 10.0 | 0.00 | 0.00 | 0.00 | 38 | 983.8 |
| 20260502204925 | 77 | 247 | 3.0 | 9.0 | 0.00 | 0.00 | 0.00 | 38 | 983.9 |
| 20260502204425 | 76 | 230 | 4.0 | 12.0 | 0.00 | 0.00 | 0.00 | 40 | 983.9 |
| 20260502203926 | 77 | 300 | 6.0 | 12.0 | 0.00 | 0.00 | 0.00 | 38 | 984.0 |
| 20260502203425 | 76 | 269 | 4.0 | 10.0 | 0.00 | 0.00 | 0.00 | 38 | 984.0 |
| 20260502202925 | 76 | 281 | 3.0 | 10.0 | 0.00 | 0.00 | 0.00 | 39 | 984.1 |
| 20260502202424 | 75 | 247 | 3.0 | 10.0 | 0.00 | 0.00 | 0.00 | 40 | 984.1 |
| 20260502201922 | 76 | 247 | 4.0 | 10.0 | 0.00 | 0.00 | 0.00 | 40 | 984.2 |
| 20260502201420 | 76 | 335 | 7.0 | 11.0 | 0.00 | 0.00 | 0.00 | 39 | 984.3 |
| 20260502200921 | 76 | 297 | 7.0 | 13.0 | 0.00 | 0.00 | 0.00 | 38 | 984.4 |
| 20260502200421 | 75 | 309 | 5.0 | 13.0 | 0.00 | 0.00 | 0.00 | 39 | 984.4 |
| 20260502195919 | 76 | 308 | 5.0 | 13.0 | 0.00 | 0.00 | 0.00 | 40 | 984.4 |
| 20260502195419 | 76 | 340 | 4.0 | 13.0 | 0.00 | 0.00 | 0.00 | 40 | 984.4 |
| 20260502194920 | 75 | 265 | 3.0 | 9.0 | 0.00 | 0.00 | 0.00 | 40 | 984.5 |
| 20260502194419 | 75 | 318 | 5.0 | 9.0 | 0.00 | 0.00 | 0.00 | 42 | 984.6 |
| 20260502193918 | 75 | 309 | 5.0 | 9.0 | 0.00 | 0.00 | 0.00 | 42 | 984.8 |
| 20260502193414 | 76 | 303 | 5.0 | 10.0 | 0.00 | 0.00 | 0.00 | 40 | 984.7 |
| 20260502192913 | 76 | 315 | 6.0 | 11.0 | 0.00 | 0.00 | 0.00 | 40 | 984.8 |
| 20260502191913 | 75 | 298 | 5.0 | 10.0 | 0.00 | 0.00 | 0.00 | 43 | 984.9 |
| 20260502191413 | 75 | 336 | 5.0 | 10.0 | 0.00 | 0.00 | 0.00 | 43 | 984.8 |
| 20260502190913 | 74 | 9 | 4.0 | 12.0 | 0.00 | 0.00 | 0.00 | 41 | 984.8 |
| 20260502190413 | 74 | 330 | 3.0 | 12.0 | 0.00 | 0.00 | 0.00 | 43 | 984.9 |
| 20260502185913 | 74 | 77 | 5.0 | 12.0 | 0.00 | 0.00 | 0.00 | 42 | 985.0 |
| 20260502185412 | 75 | 297 | 5.0 | 12.0 | 0.00 | 0.00 | 0.00 | 40 | 985.0 |
| 20260502184908 | 76 | 227 | 4.0 | 10.0 | 0.00 | 0.00 | 0.00 | 38 | 985.1 |
| 20260502184409 | 75 | 290 | 4.0 | 10.0 | 0.00 | 0.00 | 0.00 | 41 | 985.1 |
| 20260502183909 | 74 | 329 | 4.0 | 10.0 | 0.00 | 0.00 | 0.00 | 41 | 985.2 |
| 20260502182409 | 74 | 271 | 5.0 | 12.0 | 0.00 | 0.00 | 0.00 | 43 | 985.4 |
| 20260502181908 | 74 | 315 | 5.0 | 12.0 | 0.00 | 0.00 | 0.00 | 43 | 985.4 |
| 20260502181408 | 73 | 286 | 3.0 | 12.0 | 0.00 | 0.00 | 0.00 | 43 | 985.5 |
| 20260502180909 | 73 | 317 | 4.0 | 9.0 | 0.00 | 0.00 | 0.00 | 43 | 985.6 |
| 20260502170403 | 72 | 313 | 6.0 | 12.0 | 0.00 | 0.00 | 0.00 | 42 | 986.5 |
| 20260502163346 | 71 | 319 | 4.0 | 8.0 | 0.00 | 0.00 | 0.00 | 41 | 986.4 |
| 20260502162840 | 71 | 279 | 5.0 | 9.0 | 0.00 | 0.00 | 0.00 | 40 | 986.3 |
| 20260502162334 | 71 | 308 | 4.0 | 10.0 | 0.00 | 0.00 | 0.00 | 41 | 986.4 |
| 20260502161828 | 71 | 323 | 4.0 | 10.0 | 0.00 | 0.00 | 0.00 | 42 | 986.4 |
| 20260502161322 | 70 | 281 | 3.0 | 9.0 | 0.00 | 0.00 | 0.00 | 41 | 986.4 |
| 20260502160816 | 70 | 256 | 4.0 | 9.0 | 0.00 | 0.00 | 0.00 | 40 | 986.4 |
| 20260502160310 | 70 | 282 | 4.0 | 9.0 | 0.00 | 0.00 | 0.00 | 40 | 986.5 |
| 20260502152222 | 68 | 308 | 3.0 | 9.0 | 0.00 | 0.00 | 0.00 | 48 | 986.4 |
| 20260502151210 | 68 | 321 | 4.0 | 9.0 | 0.00 | 0.00 | 0.00 | 48 | 986.3 |
| 20260502150705 | 67 | 323 | 4.0 | 9.0 | 0.00 | 0.00 | 0.00 | 48 | 986.4 |
| 20260502150159 | 67 | 315 | 2.0 | 8.0 | 0.00 | 0.00 | 0.00 | 49 | 986.4 |
| 20260502130109 | 55 | 134 | 0.0 | 0.0 | 0.00 | 0.00 | 0.00 | 73 | 985.5 |
| 20260502123540 | 51 | 117 | 0.0 | 0.0 | 0.00 | 0.00 | 0.00 | 77 | 985.3 |
| 20260502123034 | 50 | 117 | 0.0 | 2.0 | 0.00 | 0.00 | 0.00 | 79 | 985.2 |
| 20260502122031 | 49 | 106 | 0.0 | 1.0 | 0.00 | 0.00 | 0.00 | 80 | 984.9 |
| 20260502121531 | 49 | 109 | 0.0 | 1.0 | 0.00 | 0.00 | 0.00 | 80 | 984.9 |
| 20260502121032 | 49 | 90 | 0.0 | 1.0 | 0.00 | 0.00 | 0.00 | 80 | 984.9 |
| 20260502120532 | 49 | 90 | 0.0 | 1.0 | 0.00 | 0.00 | 0.00 | 80 | 984.8 |
| 20260502115530 | 48 | 91 | 0.0 | 0.0 | 0.00 | 0.00 | 0.00 | 82 | 984.7 |
| 20260502114526 | 47 | 92 | 0.0 | 0.0 | 0.00 | 0.00 | 0.00 | 82 | 984.5 |
| 20260502113522 | 47 | 92 | 0.0 | 0.0 | 0.00 | 0.00 | 0.00 | 82 | 984.4 |
| 20260502113020 | 47 | 92 | 0.0 | 0.0 | 0.00 | 0.00 | 0.00 | 82 | 984.4 |
| 20260502112517 | 47 | 92 | 0.0 | 0.0 | 0.00 | 0.00 | 0.00 | 82 | 984.4 |
| 20260502112015 | 47 | 92 | 0.0 | 0.0 | 0.00 | 0.00 | 0.00 | 82 | 984.3 |
| 20260502111513 | 48 | 92 | 0.0 | 0.0 | 0.00 | 0.00 | 0.00 | 82 | 984.3 |
| 20260502111014 | 48 | 92 | 0.0 | 0.0 | 0.00 | 0.00 | 0.00 | 83 | 984.2 |
| 20260502110513 | 48 | 92 | 0.0 | 0.0 | 0.00 | 0.00 | 0.00 | 83 | 984.2 |
| 20260502110014 | 48 | 92 | 0.0 | 0.0 | 0.00 | 0.00 | 0.00 | 83 | 984.2 |
| 20260502105509 | 47 | 92 | 0.0 | 0.0 | 0.00 | 0.00 | 0.00 | 83 | 984.2 |
| 20260502105010 | 47 | 92 | 0.0 | 0.0 | 0.00 | 0.00 | 0.00 | 83 | 984.1 |
| 20260502104510 | 47 | 92 | 0.0 | 0.0 | 0.00 | 0.00 | 0.00 | 83 | 984.1 |
| 20260502104009 | 48 | 92 | 0.0 | 0.0 | 0.00 | 0.00 | 0.00 | 84 | 984.1 |
| 20260502103010 | 48 | 92 | 0.0 | 0.0 | 0.00 | 0.00 | 0.00 | 84 | 983.9 |
| 20260502102010 | 48 | 92 | 0.0 | 0.0 | 0.00 | 0.00 | 0.00 | 84 | 983.8 |
| 20260502101509 | 48 | 92 | 0.0 | 0.0 | 0.00 | 0.00 | 0.00 | 84 | 983.7 |
| 20260502100506 | 49 | 92 | 0.0 | 0.0 | 0.00 | 0.00 | 0.00 | 84 | 983.7 |
| 20260502091455 | 49 | 92 | 0.0 | 0.0 | 0.00 | 0.00 | 0.00 | 82 | 983.4 |
| 20260502090937 | 49 | 91 | 0.0 | 0.0 | 0.00 | 0.00 | 0.00 | 81 | 983.4 |
| 20260502090435 | 49 | 91 | 0.0 | 0.0 | 0.00 | 0.00 | 0.00 | 81 | 983.5 |
| 20260502071222 | 51 | 91 | 0.0 | 0.0 | 0.00 | 0.00 | 0.00 | 81 | 983.8 |
| 20260502070716 | 51 | 91 | 0.0 | 0.0 | 0.00 | 0.00 | 0.00 | 81 | 983.8 |
| 20260502070210 | 51 | 91 | 0.0 | 0.0 | 0.00 | 0.00 | 0.00 | 81 | 983.8 |
| 20260502065705 | 51 | 91 | 0.0 | 0.0 | 0.00 | 0.00 | 0.00 | 81 | 983.7 |
| 20260502065158 | 51 | 91 | 0.0 | 0.0 | 0.00 | 0.00 | 0.00 | 81 | 983.6 |
| 20260502064652 | 51 | 91 | 0.0 | 0.0 | 0.00 | 0.00 | 0.00 | 81 | 983.7 |
| 20260502064146 | 52 | 91 | 0.0 | 0.0 | 0.00 | 0.00 | 0.00 | 80 | 983.8 |
| 20260502063640 | 52 | 91 | 0.0 | 0.0 | 0.00 | 0.00 | 0.00 | 80 | 983.8 |
| 20260502063134 | 52 | 91 | 0.0 | 0.0 | 0.00 | 0.00 | 0.00 | 79 | 983.8 |
| 20260502061617 | 53 | 91 | 0.0 | 0.0 | 0.00 | 0.00 | 0.00 | 78 | 983.8 |
| 20260502061111 | 53 | 91 | 0.0 | 0.0 | 0.00 | 0.00 | 0.00 | 78 | 983.7 |
| 20260502060605 | 53 | 91 | 0.0 | 0.0 | 0.00 | 0.00 | 0.00 | 78 | 983.6 |
| 20260502060058 | 53 | 91 | 0.0 | 0.0 | 0.00 | 0.00 | 0.00 | 78 | 983.7 |
| 20260502055047 | 53 | 91 | 0.0 | 0.0 | 0.00 | 0.00 | 0.00 | 78 | 983.7 |
| 20260502054541 | 53 | 91 | 0.0 | 0.0 | 0.00 | 0.00 | 0.00 | 77 | 983.6 |
| 20260502053529 | 53 | 91 | 0.0 | 0.0 | 0.00 | 0.00 | 0.00 | 77 | 983.7 |
| 20260502053022 | 53 | 91 | 0.0 | 0.0 | 0.00 | 0.00 | 0.00 | 76 | 983.7 |
| 20260502052516 | 54 | 91 | 0.0 | 0.0 | 0.00 | 0.00 | 0.00 | 76 | 983.7 |
| 20260502052010 | 54 | 91 | 0.0 | 0.0 | 0.00 | 0.00 | 0.00 | 75 | 983.6 |
| 20260502051504 | 55 | 91 | 0.0 | 0.0 | 0.00 | 0.00 | 0.00 | 74 | 983.6 |
| 20260502050958 | 55 | 91 | 0.0 | 0.0 | 0.00 | 0.00 | 0.00 | 74 | 983.6 |
| 20260502050453 | 55 | 91 | 0.0 | 0.0 | 0.00 | 0.00 | 0.00 | 74 | 983.6 |
| 20260502045948 | 55 | 91 | 0.0 | 0.0 | 0.00 | 0.00 | 0.00 | 73 | 983.5 |
| 20260502045442 | 55 | 91 | 0.0 | 0.0 | 0.00 | 0.00 | 0.00 | 73 | 983.5 |
| 20260502044935 | 55 | 91 | 0.0 | 0.0 | 0.00 | 0.00 | 0.00 | 73 | 983.5 |
| 20260502044430 | 56 | 91 | 0.0 | 0.0 | 0.00 | 0.00 | 0.00 | 72 | 983.4 |
| 20260502043923 | 56 | 92 | 0.0 | 0.0 | 0.00 | 0.00 | 0.00 | 72 | 983.3 |
| 20260502043417 | 56 | 92 | 0.0 | 0.0 | 0.00 | 0.00 | 0.00 | 72 | 983.2 |
| 20260502042911 | 56 | 119 | 0.0 | 0.0 | 0.00 | 0.00 | 0.00 | 71 | 983.3 |
| 20260502042405 | 56 | 134 | 0.0 | 0.0 | 0.00 | 0.00 | 0.00 | 71 | 983.1 |
| 20260502041900 | 57 | 136 | 0.0 | 0.0 | 0.00 | 0.00 | 0.00 | 70 | 983.1 |
| 20260502041355 | 57 | 0 | 0.0 | 0.0 | 0.00 | 0.00 | 0.00 | 69 | 983.0 |
| 20260502040848 | 58 | 0 | 0.0 | 0.0 | 0.00 | 0.00 | 0.00 | 68 | 983.0 |
| 20260502040342 | 58 | 136 | 0.0 | 0.0 | 0.00 | 0.00 | 0.00 | 67 | 983.2 |
| 20260502035836 | 59 | 0 | 0.0 | 3.0 | 0.00 | 0.00 | 0.00 | 66 | 983.1 |
| 20260502035330 | 59 | 134 | 1.0 | 4.0 | 0.00 | 0.00 | 0.00 | 65 | 983.1 |
| 20260502034824 | 60 | 118 | 2.0 | 7.0 | 0.00 | 0.00 | 0.00 | 63 | 983.0 |
| 20260502034319 | 60 | 115 | 2.0 | 7.0 | 0.00 | 0.00 | 0.00 | 62 | 983.0 |
| 20260502033812 | 61 | 104 | 2.0 | 6.0 | 0.00 | 0.00 | 0.00 | 62 | 983.0 |
| 20260502033305 | 61 | 95 | 2.0 | 6.0 | 0.00 | 0.00 | 0.00 | 62 | 983.1 |
| 20260502032800 | 61 | 96 | 3.0 | 7.0 | 0.00 | 0.00 | 0.00 | 63 | 983.2 |
| 20260502032254 | 61 | 95 | 3.0 | 7.0 | 0.00 | 0.00 | 0.00 | 63 | 983.0 |
| 20260502031752 | 61 | 94 | 3.0 | 6.0 | 0.00 | 0.00 | 0.00 | 64 | 983.1 |
| 20260502031252 | 61 | 94 | 2.0 | 7.0 | 0.00 | 0.00 | 0.00 | 64 | 983.1 |
| 20260502030750 | 61 | 95 | 2.0 | 7.0 | 0.00 | 0.00 | 0.00 | 64 | 983.0 |
| 20260502025748 | 62 | 95 | 3.0 | 6.0 | 0.00 | 0.00 | 0.00 | 63 | 983.0 |
| 20260502025248 | 62 | 96 | 2.0 | 6.0 | 0.00 | 0.00 | 0.00 | 63 | 982.8 |
| 20260502024748 | 62 | 106 | 1.0 | 3.0 | 0.00 | 0.00 | 0.00 | 63 | 982.8 |
| 20260502024248 | 62 | 105 | 0.0 | 5.0 | 0.00 | 0.00 | 0.00 | 63 | 982.7 |
| 20260502023745 | 62 | 105 | 0.0 | 5.0 | 0.00 | 0.00 | 0.00 | 63 | 982.7 |
| 20260502023246 | 63 | 109 | 0.0 | 5.0 | 0.00 | 0.00 | 0.00 | 63 | 982.7 |
| 20260502022745 | 63 | 112 | 1.0 | 5.0 | 0.00 | 0.00 | 0.00 | 63 | 982.6 |
| 20260502022246 | 63 | 0 | 1.0 | 4.0 | 0.00 | 0.00 | 0.00 | 63 | 982.5 |
| 20260502021745 | 63 | 104 | 2.0 | 6.0 | 0.00 | 0.00 | 0.00 | 64 | 982.5 |
| 20260502021242 | 63 | 98 | 2.0 | 7.0 | 0.00 | 0.00 | 0.00 | 64 | 982.4 |
| 20260502020742 | 63 | 111 | 2.0 | 7.0 | 0.00 | 0.00 | 0.00 | 65 | 982.3 |
| 20260502020241 | 64 | 100 | 2.0 | 8.0 | 0.00 | 0.00 | 0.00 | 65 | 982.2 |
| 20260502015742 | 64 | 100 | 2.0 | 8.0 | 0.00 | 0.00 | 0.00 | 65 | 982.0 |
| 20260502015242 | 64 | 107 | 3.0 | 9.0 | 0.00 | 0.00 | 0.00 | 65 | 981.9 |
| 20260502014741 | 64 | 0 | 4.0 | 9.0 | 0.00 | 0.00 | 0.00 | 66 | 982.0 |
| 20260502014242 | 64 | 77 | 4.0 | 8.0 | 0.00 | 0.00 | 0.00 | 65 | 981.8 |
| 20260502013742 | 64 | 73 | 3.0 | 8.0 | 0.00 | 0.00 | 0.00 | 65 | 981.6 |
| 20260502013241 | 65 | 350 | 2.0 | 6.0 | 0.00 | 0.00 | 0.00 | 66 | 981.5 |
| 20260502012742 | 65 | 344 | 2.0 | 6.0 | 0.00 | 0.00 | 0.00 | 66 | 981.5 |
| 20260502011241 | 65 | 222 | 2.0 | 3.0 | 0.00 | 0.00 | 0.00 | 64 | 981.2 |
| 20260502010742 | 65 | 222 | 2.0 | 3.0 | 0.00 | 0.00 | 0.00 | 63 | 981.1 |
| 20260502010241 | 65 | 225 | 1.0 | 3.0 | 0.00 | 0.00 | 0.00 | 63 | 981.1 |
| 20260502005742 | 66 | 0 | 1.0 | 3.0 | 0.00 | 0.00 | 0.00 | 62 | 980.9 |
| 20260502005242 | 66 | 225 | 1.0 | 2.0 | 0.00 | 0.00 | 0.00 | 61 | 980.9 |
| 20260502004741 | 66 | 225 | 1.0 | 2.0 | 0.00 | 0.00 | 0.00 | 61 | 980.8 |
| 20260502004235 | 66 | 236 | 1.0 | 2.0 | 0.00 | 0.00 | 0.00 | 61 | 980.8 |
| 20260502003729 | 66 | 234 | 1.0 | 3.0 | 0.00 | 0.00 | 0.00 | 61 | 980.7 |
| 20260502003223 | 66 | 0 | 2.0 | 4.0 | 0.00 | 0.00 | 0.00 | 60 | 980.5 |
| 20260502002721 | 66 | 0 | 2.0 | 4.0 | 0.00 | 0.00 | 0.00 | 59 | 980.5 |
| 20260502002219 | 66 | 0 | 2.0 | 3.0 | 0.00 | 0.00 | 0.00 | 60 | 980.5 |
| 20260502001723 | 66 | 236 | 2.0 | 3.0 | 0.00 | 0.00 | 0.00 | 59 | 980.4 |
| 20260502001219 | 66 | 0 | 2.0 | 3.0 | 0.00 | 0.00 | 0.00 | 58 | 980.3 |
| 20260502000720 | 67 | 0 | 1.0 | 3.0 | 0.00 | 0.00 | 0.00 | 59 | 980.3 |
| 20260502000220 | 66 | 0 | 1.0 | 2.0 | 0.00 | 0.00 | 0.00 | 59 | 980.3 |
| 20260501235719 | 67 | 0 | 1.0 | 2.0 | 0.00 | 0.00 | 0.00 | 59 | 980.2 |
| 20260501235219 | 67 | 0 | 2.0 | 3.0 | 0.00 | 0.00 | 0.00 | 59 | 980.1 |
| 20260501234719 | 67 | 0 | 2.0 | 3.0 | 0.00 | 0.00 | 0.00 | 59 | 980.0 |
| 20260501234220 | 66 | 241 | 1.0 | 3.0 | 0.00 | 0.00 | 0.00 | 58 | 980.1 |
| 20260501233218 | 67 | 0 | 0.0 | 1.0 | 0.00 | 0.00 | 0.00 | 58 | 980.1 |
| 20260501232715 | 67 | 234 | 0.0 | 2.0 | 0.00 | 0.00 | 0.00 | 59 | 980.1 |
| 20260501232215 | 67 | 0 | 1.0 | 3.0 | 0.00 | 0.00 | 0.00 | 58 | 979.9 |
| 20260501231715 | 67 | 0 | 1.0 | 3.0 | 0.00 | 0.00 | 0.00 | 58 | 979.9 |
| 20260501231214 | 67 | 223 | 0.0 | 3.0 | 0.00 | 0.00 | 0.00 | 57 | 979.9 |
| 20260501230713 | 67 | 225 | 0.0 | 3.0 | 0.00 | 0.00 | 0.00 | 58 | 979.9 |
| 20260501230207 | 67 | 213 | 1.0 | 4.0 | 0.00 | 0.00 | 0.00 | 59 | 979.8 |
| 20260501225700 | 67 | 212 | 1.0 | 4.0 | 0.00 | 0.00 | 0.00 | 58 | 979.8 |
| 20260501225154 | 67 | 0 | 1.0 | 2.0 | 0.00 | 0.00 | 0.00 | 58 | 979.9 |
| 20260501224648 | 67 | 235 | 1.0 | 2.0 | 0.00 | 0.00 | 0.00 | 59 | 979.8 |
| 20260501224142 | 67 | 229 | 0.0 | 2.0 | 0.00 | 0.00 | 0.00 | 58 | 979.7 |
| 20260501223636 | 67 | 221 | 1.0 | 3.0 | 0.00 | 0.00 | 0.00 | 57 | 979.7 |
| 20260501223130 | 67 | 225 | 1.0 | 3.0 | 0.00 | 0.00 | 0.00 | 57 | 979.7 |
| 20260501222624 | 67 | 229 | 1.0 | 3.0 | 0.00 | 0.00 | 0.00 | 56 | 979.6 |
| 20260501222119 | 67 | 214 | 1.0 | 3.0 | 0.00 | 0.00 | 0.00 | 57 | 979.5 |
| 20260501221613 | 67 | 220 | 1.0 | 3.0 | 0.00 | 0.00 | 0.00 | 57 | 979.5 |
| 20260501221108 | 67 | 212 | 1.0 | 6.0 | 0.00 | 0.00 | 0.00 | 58 | 979.6 |
| 20260501220601 | 67 | 213 | 1.0 | 6.0 | 0.00 | 0.00 | 0.00 | 58 | 979.5 |
| 20260501220054 | 67 | 214 | 2.0 | 8.0 | 0.00 | 0.00 | 0.00 | 57 | 979.6 |
| 20260501215549 | 67 | 126 | 3.0 | 8.0 | 0.00 | 0.00 | 0.00 | 57 | 979.6 |
| 20260501215043 | 67 | 88 | 3.0 | 7.0 | 0.00 | 0.00 | 0.00 | 58 | 979.6 |
| 20260501214536 | 67 | 107 | 2.0 | 6.0 | 0.00 | 0.00 | 0.00 | 57 | 979.6 |
| 20260501214031 | 68 | 100 | 2.0 | 5.0 | 0.00 | 0.00 | 0.00 | 59 | 979.6 |
| 20260501213525 | 67 | 93 | 3.0 | 8.0 | 0.00 | 0.00 | 0.00 | 58 | 979.7 |